When you browse on this site, cookies collect data to enhance your experience and personalize the content and advertising you see.
Visit our Privacy Policy to learn more. By continuing to use the site, you agree to this use of cookies and data.
  • In Romania
  • List of Countries
  • For 7 days
  • Water Temperature
  • Weather Map
  • Weather Widgets
  • user-avatar
    Login

    Hourly Weather Soro

    Today, 18 September, Wednesday

    Time Temperature Precipitation Wind Pressure Humidity
    00:00 +8°C° 0 mm 6 mps 756 mmHg 66%
    01:00 +8°C° 0 mm 6 mps 757 mmHg 67%
    02:00 +8°C° 0 mm 6 mps 757 mmHg 73%
    03:00 +8°C° 0 mm 6 mps 757 mmHg 78%
    04:00 +8°C° 0 mm 6 mps 757 mmHg 83%
    05:00 +8°C° 0 mm 6 mps 757 mmHg 83%
    06:00 +8°C° 0 mm 6 mps 758 mmHg 82%
    07:00 +8°C° 0 mm 6 mps 758 mmHg 82%
    08:00 +9°C° 0 mm 7 mps 759 mmHg 77%
    09:00 +10°C° 0 mm 7 mps 759 mmHg 72%
    10:00 +12°C° 0 mm 7 mps 759 mmHg 68%
    11:00 +12°C° 0 mm 7 mps 760 mmHg 66%
    12:00 +12°C° 0 mm 7 mps 760 mmHg 64%
    13:00 +12°C° 0 mm 7 mps 760 mmHg 62%
    14:00 +12°C° 0 mm 7 mps 760 mmHg 62%
    15:00 +13°C° 0 mm 6 mps 760 mmHg 62%
    16:00 +13°C° 0 mm 6 mps 760 mmHg 61%
    17:00 +12°C° 0.1 mm 5 mps 760 mmHg 67%
    18:00 +10°C° 0.1 mm 5 mps 760 mmHg 72%
    19:00 +9°C° 0.1 mm 5 mps 760 mmHg 77%
    20:00 +9°C° 0 mm 5 mps 761 mmHg 78%
    21:00 +9°C° 0 mm 5 mps 761 mmHg 79%
    22:00 +8°C° 0 mm 5 mps 762 mmHg 80%
    23:00 +8°C° 0 mm 5 mps 762 mmHg 82%

    Tomorrow, 19 September, Thursday

    Time Temperature Precipitation Wind Pressure Humidity
    00:00 +8°C° 0 mm 4 mps 762 mmHg 83%
    01:00 +8°C° 0 mm 4 mps 762 mmHg 85%
    02:00 +7°C° 0 mm 4 mps 763 mmHg 86%
    03:00 +7°C° 0 mm 4 mps 763 mmHg 87%
    04:00 +8°C° 0 mm 3 mps 763 mmHg 88%
    05:00 +8°C° 0 mm 3 mps 763 mmHg 87%
    06:00 +8°C° 0 mm 3 mps 763 mmHg 87%
    07:00 +9°C° 0 mm 3 mps 764 mmHg 86%
    08:00 +10°C° 0 mm 3 mps 764 mmHg 78%
    09:00 +12°C° 0 mm 3 mps 764 mmHg 70%
    10:00 +14°C° 0 mm 2 mps 765 mmHg 63%
    11:00 +15°C° 0 mm 2 mps 765 mmHg 60%
    12:00 +15°C° 0 mm 2 mps 765 mmHg 57%
    13:00 +15°C° 0 mm 2 mps 765 mmHg 55%
    14:00 +15°C° 0 mm 2 mps 765 mmHg 56%
    15:00 +15°C° 0 mm 2 mps 765 mmHg 57%
    16:00 +14°C° 0 mm 3 mps 765 mmHg 58%
    17:00 +12°C° 0 mm 3 mps 765 mmHg 63%
    18:00 +11°C° 0 mm 3 mps 765 mmHg 68%
    19:00 +10°C° 0 mm 3 mps 765 mmHg 74%
    20:00 +10°C° 0 mm 4 mps 765 mmHg 77%
    21:00 +10°C° 0 mm 4 mps 765 mmHg 79%
    22:00 +8°C° 0 mm 4 mps 766 mmHg 82%
    23:00 +8°C° 0 mm 4 mps 766 mmHg 83%

    Day after tomorrow, 20 September, Friday

    Time Temperature Precipitation Wind Pressure Humidity
    00:00 +8°C° 0 mm 4 mps 765 mmHg 85%
    01:00 +8°C° 0 mm 4 mps 765 mmHg 86%
    02:00 +7°C° 0 mm 4 mps 765 mmHg 88%
    03:00 +8°C° 0 mm 3 mps 765 mmHg 89%
    04:00 +8°C° 0 mm 3 mps 765 mmHg 91%
    05:00 +9°C° 0 mm 3 mps 765 mmHg 90%
    06:00 +9°C° 0 mm 2 mps 765 mmHg 90%
    07:00 +9°C° 0 mm 2 mps 765 mmHg 89%
    08:00 +12°C° 0 mm 2 mps 765 mmHg 84%
    09:00 +13°C° 0 mm 2 mps 766 mmHg 79%
    10:00 +14°C° 0 mm 2 mps 766 mmHg 74%
    11:00 +15°C° 0 mm 2 mps 766 mmHg 73%
    12:00 +15°C° 0 mm 2 mps 766 mmHg 71%
    13:00 +16°C° 0 mm 2 mps 766 mmHg 69%
    14:00 +15°C° 0 mm 2 mps 766 mmHg 71%
    15:00 +15°C° 0 mm 2 mps 765 mmHg 73%
    16:00 +15°C° 0 mm 2 mps 765 mmHg 74%
    17:00 +15°C° 0 mm 2 mps 765 mmHg 77%
    18:00 +15°C° 0 mm 2 mps 765 mmHg 80%
    19:00 +14°C° 0 mm 2 mps 765 mmHg 83%
    20:00 +14°C° 0 mm 2 mps 765 mmHg 84%
    21:00 +14°C° 0 mm 2 mps 765 mmHg 85%
    22:00 +13°C° 0 mm 2 mps 765 mmHg 85%
    23:00 +13°C° 0 mm 2 mps 765 mmHg 86%

    21 September, Saturday

    Time Temperature Precipitation Wind Pressure Humidity
    00:00 +13°C° 0 mm 2 mps 765 mmHg 87%
    01:00 +12°C° 0 mm 3 mps 765 mmHg 88%
    02:00 +12°C° 0 mm 3 mps 765 mmHg 90%
    03:00 +11°C° 0 mm 3 mps 765 mmHg 91%
    04:00 +11°C° 0 mm 3 mps 764 mmHg 93%
    05:00 +12°C° 0 mm 2 mps 764 mmHg 92%
    06:00 +12°C° 0 mm 2 mps 764 mmHg 92%
    07:00 +12°C° 0 mm 2 mps 764 mmHg 92%
    08:00 +14°C° 0 mm 2 mps 764 mmHg 86%
    09:00 +14°C° 0 mm 3 mps 764 mmHg 80%
    10:00 +16°C° 0 mm 3 mps 764 mmHg 73%
    11:00 +17°C° 0 mm 3 mps 764 mmHg 71%
    12:00 +18°C° 0 mm 3 mps 764 mmHg 68%
    13:00 +18°C° 0 mm 3 mps 764 mmHg 65%
    14:00 +18°C° 0 mm 3 mps 764 mmHg 66%
    15:00 +18°C° 0 mm 3 mps 763 mmHg 66%
    16:00 +18°C° 0 mm 2 mps 763 mmHg 67%
    17:00 +16°C° 0 mm 2 mps 762 mmHg 73%
    18:00 +15°C° 0 mm 2 mps 762 mmHg 79%
    19:00 +14°C° 0 mm 2 mps 762 mmHg 85%
    20:00 +12°C° 0 mm 3 mps 762 mmHg 86%
    21:00 +12°C° 0 mm 3 mps 762 mmHg 87%
    22:00 +12°C° 0 mm 3 mps 761 mmHg 88%
    23:00 +12°C° 0 mm 3 mps 761 mmHg 86%

    22 September, Sunday

    Time Temperature Precipitation Wind Pressure Humidity
    00:00 +11°C° 0 mm 3 mps 761 mmHg 85%
    01:00 +11°C° 0 mm 4 mps 760 mmHg 84%
    02:00 +11°C° 0 mm 4 mps 760 mmHg 83%
    03:00 +11°C° 0 mm 4 mps 759 mmHg 82%
    04:00 +11°C° 0 mm 4 mps 759 mmHg 81%
    05:00 +11°C° 0 mm 4 mps 758 mmHg 81%
    06:00 +11°C° 0 mm 4 mps 758 mmHg 80%
    07:00 +10°C° 0 mm 5 mps 757 mmHg 80%
    08:00 +12°C° 0 mm 5 mps 757 mmHg 75%
    09:00 +14°C° 0 mm 5 mps 757 mmHg 69%
    10:00 +15°C° 0 mm 6 mps 757 mmHg 64%
    11:00 +15°C° 0 mm 5 mps 757 mmHg 64%
    12:00 +15°C° 0 mm 5 mps 756 mmHg 64%
    13:00 +15°C° 0 mm 4 mps 755 mmHg 64%
    14:00 +15°C° 0 mm 4 mps 755 mmHg 66%
    15:00 +15°C° 0 mm 4 mps 755 mmHg 68%
    16:00 +14°C° 0 mm 4 mps 754 mmHg 70%
    17:00 +14°C° 0.1 mm 4 mps 754 mmHg 73%
    18:00 +14°C° 0.1 mm 3 mps 754 mmHg 76%
    19:00 +13°C° 0.1 mm 3 mps 754 mmHg 79%
    20:00 +13°C° 0.5 mm 3 mps 754 mmHg 83%
    21:00 +13°C° 0.5 mm 3 mps 754 mmHg 86%
    22:00 +14°C° 0.5 mm 2 mps 754 mmHg 90%
    23:00 +13°C° 0.2 mm 3 mps 753 mmHg 90%

    23 September, Monday

    Time Temperature Precipitation Wind Pressure Humidity
    00:00 +13°C° 0.2 mm 3 mps 753 mmHg 91%
    01:00 +13°C° 0.2 mm 3 mps 753 mmHg 91%
    02:00 +13°C° 0.3 mm 3 mps 753 mmHg 92%
    03:00 +13°C° 0.3 mm 3 mps 753 mmHg 93%
    04:00 +13°C° 0.3 mm 3 mps 753 mmHg 94%
    05:00 +13°C° 0 mm 3 mps 753 mmHg 94%
    06:00 +13°C° 0 mm 3 mps 752 mmHg 94%
    07:00 +13°C° 0 mm 3 mps 752 mmHg 94%
    08:00 +14°C° 0 mm 3 mps 753 mmHg 90%
    09:00 +15°C° 0 mm 4 mps 753 mmHg 87%
    10:00 +17°C° 0 mm 4 mps 753 mmHg 84%
    11:00 +15°C° 0.1 mm 4 mps 753 mmHg 84%
    12:00 +15°C° 0.1 mm 4 mps 753 mmHg 84%
    13:00 +15°C° 0.1 mm 4 mps 753 mmHg 84%
    14:00 +15°C° 0.2 mm 4 mps 753 mmHg 86%
    15:00 +15°C° 0.2 mm 4 mps 753 mmHg 87%
    16:00 +14°C° 0.2 mm 4 mps 754 mmHg 89%
    17:00 +14°C° 0.4 mm 4 mps 754 mmHg 89%
    18:00 +14°C° 0.4 mm 4 mps 754 mmHg 89%
    19:00 +13°C° 0.4 mm 4 mps 754 mmHg 89%
    20:00 +13°C° 1 mm 5 mps 754 mmHg 89%
    21:00 +13°C° 1 mm 6 mps 755 mmHg 89%
    22:00 +12°C° 1 mm 7 mps 755 mmHg 89%
    23:00 +12°C° 1.2 mm 7 mps 755 mmHg 89%
    Show more